User: anonymous   Login
Location: Shades State Park
(39.9310°N, 87.0690°W)
Time: 16:28:56
(UTC-04:00)
Language:

H-2A R/B - Orbit

View from above orbital plane
View from above orbital plane
View from above satellite
View from above satellite

Ground track
Ground track

The orbit data is extracted from the following two-line orbital elements,

1 27601U 02056E   16206.15495075  .00000042  00000-0  30841-4 0  9996
2 27601  98.4166 278.5647 0072156 186.6130 232.1763 14.31724818710873
Epoch (UTC): 24 July 2016 03:43:07
Eccentricity: 0.0072156
inclination: 98.4166°
perigee height: 734 km
apogee height: 837 km
right ascension of ascending node: 278.5647°
argument of perigee: 186.6130°
revolutions per day: 14.31724818
mean anomaly at epoch: 232.1763°
orbit number at epoch: 71087

The dashed part of the orbit path shows where the satellite is in the earth's shadow,  

DLR